When you browse on this site, cookies collect data to enhance your experience and personalize the content and advertising you see.
Visit our Privacy Policy to learn more. By continuing to use the site, you agree to this use of cookies and data.
  • In Austria
  • List of Countries
  • For 7 days
  • Water Temperature
  • Weather Map
  • News
  • Weather Widgets
  • user-avatar
    Login

    Hourly Weather Tulancingo

    Today, 19 August, Monday

    Time Temperature Precipitation Wind Pressure Humidity
    00:00 +15°C° 0 mm 1 mps 586 mmHg 96%
    01:00 +14°C° 0 mm 1 mps 586 mmHg 96%
    02:00 +14°C° 0 mm 1 mps 585 mmHg 97%
    03:00 +14°C° 0 mm 1 mps 586 mmHg 96%
    04:00 +14°C° 0 mm 1 mps 586 mmHg 96%
    05:00 +14°C° 0 mm 1 mps 586 mmHg 96%
    06:00 +15°C° 0 mm 1 mps 587 mmHg 89%
    07:00 +18°C° 0 mm 1 mps 587 mmHg 81%
    08:00 +19°C° 0 mm 1 mps 588 mmHg 73%
    09:00 +19°C° 0.1 mm 3 mps 589 mmHg 69%
    10:00 +21°C° 0.1 mm 4 mps 589 mmHg 64%
    11:00 +22°C° 0.1 mm 5 mps 590 mmHg 60%
    12:00 +22°C° 0.2 mm 5 mps 589 mmHg 63%
    13:00 +21°C° 0.2 mm 6 mps 588 mmHg 66%
    14:00 +21°C° 0.2 mm 6 mps 587 mmHg 69%
    15:00 +19°C° 0.2 mm 5 mps 587 mmHg 74%
    16:00 +18°C° 0.2 mm 4 mps 587 mmHg 79%
    17:00 +17°C° 0.2 mm 3 mps 586 mmHg 83%
    18:00 +16°C° 0 mm 3 mps 586 mmHg 88%
    19:00 +15°C° 0 mm 2 mps 586 mmHg 92%
    20:00 +14°C° 0 mm 2 mps 586 mmHg 97%
    21:00 +13°C° 0 mm 2 mps 586 mmHg 96%
    22:00 +13°C° 0 mm 1 mps 586 mmHg 96%
    23:00 +12°C° 0 mm 1 mps 586 mmHg 96%

    Tomorrow, 20 August, Tuesday

    Time Temperature Precipitation Wind Pressure Humidity
    00:00 +12°C° 0 mm 1 mps 586 mmHg 95%
    01:00 +11°C° 0 mm 1 mps 585 mmHg 94%
    02:00 +10°C° 0 mm 1 mps 585 mmHg 93%
    03:00 +10°C° 0 mm 1 mps 585 mmHg 92%
    04:00 +10°C° 0 mm 1 mps 585 mmHg 91%
    05:00 +10°C° 0 mm 1 mps 585 mmHg 90%
    06:00 +12°C° 0 mm 1 mps 586 mmHg 82%
    07:00 +15°C° 0 mm 1 mps 587 mmHg 73%
    08:00 +17°C° 0 mm 2 mps 589 mmHg 65%
    09:00 +18°C° 0 mm 2 mps 589 mmHg 63%
    10:00 +20°C° 0 mm 3 mps 589 mmHg 60%
    11:00 +21°C° 0 mm 4 mps 590 mmHg 58%
    12:00 +21°C° 0.2 mm 4 mps 589 mmHg 63%
    13:00 +20°C° 0.2 mm 5 mps 588 mmHg 68%
    14:00 +20°C° 0.2 mm 5 mps 587 mmHg 73%
    15:00 +19°C° 0.2 mm 4 mps 587 mmHg 78%
    16:00 +17°C° 0.2 mm 4 mps 587 mmHg 84%
    17:00 +16°C° 0.2 mm 3 mps 586 mmHg 90%
    18:00 +14°C° 0.1 mm 3 mps 587 mmHg 92%
    19:00 +15°C° 0.1 mm 2 mps 587 mmHg 95%
    20:00 +14°C° 0.1 mm 2 mps 587 mmHg 97%
    21:00 +14°C° 0 mm 2 mps 587 mmHg 96%
    22:00 +14°C° 0 mm 1 mps 587 mmHg 95%
    23:00 +14°C° 0 mm 1 mps 587 mmHg 94%

    Day after tomorrow, 21 August, Wednesday

    Time Temperature Precipitation Wind Pressure Humidity
    00:00 +14°C° 0 mm 1 mps 587 mmHg 94%
    01:00 +13°C° 0 mm 1 mps 586 mmHg 94%
    02:00 +13°C° 0 mm 1 mps 586 mmHg 94%
    03:00 +13°C° 0 mm 1 mps 586 mmHg 94%
    04:00 +12°C° 0 mm 1 mps 586 mmHg 94%
    05:00 +12°C° 0 mm 1 mps 586 mmHg 94%
    06:00 +14°C° 0 mm 1 mps 587 mmHg 87%
    07:00 +16°C° 0 mm 1 mps 588 mmHg 80%
    08:00 +18°C° 0 mm 1 mps 589 mmHg 73%
    09:00 +19°C° 0 mm 2 mps 589 mmHg 67%
    10:00 +20°C° 0 mm 3 mps 590 mmHg 61%
    11:00 +22°C° 0 mm 3 mps 590 mmHg 55%
    12:00 +21°C° 0.4 mm 4 mps 589 mmHg 62%
    13:00 +21°C° 0.4 mm 4 mps 588 mmHg 68%
    14:00 +20°C° 0.4 mm 4 mps 587 mmHg 74%
    15:00 +19°C° 0.3 mm 4 mps 587 mmHg 78%
    16:00 +18°C° 0.3 mm 3 mps 587 mmHg 81%
    17:00 +17°C° 0.3 mm 2 mps 586 mmHg 84%
    18:00 +16°C° 1.3 mm 2 mps 586 mmHg 89%
    19:00 +15°C° 1.3 mm 1 mps 586 mmHg 93%
    20:00 +14°C° 1.3 mm 1 mps 586 mmHg 97%
    21:00 +14°C° 2.1 mm 1 mps 586 mmHg 96%
    22:00 +14°C° 2.1 mm 1 mps 587 mmHg 95%
    23:00 +14°C° 2.1 mm 1 mps 587 mmHg 94%

    22 August, Thursday

    Time Temperature Precipitation Wind Pressure Humidity
    00:00 +14°C° 0 mm 1 mps 586 mmHg 94%
    01:00 +14°C° 0 mm 1 mps 586 mmHg 93%
    02:00 +13°C° 0 mm 1 mps 585 mmHg 93%
    03:00 +13°C° 0 mm 1 mps 585 mmHg 93%
    04:00 +13°C° 0 mm 1 mps 585 mmHg 93%
    05:00 +13°C° 0 mm 1 mps 585 mmHg 93%
    06:00 +15°C° 0 mm 1 mps 587 mmHg 86%
    07:00 +18°C° 0 mm 1 mps 588 mmHg 80%
    08:00 +20°C° 0 mm 1 mps 589 mmHg 73%
    09:00 +21°C° 0.7 mm 1 mps 589 mmHg 71%
    10:00 +22°C° 0.7 mm 1 mps 589 mmHg 69%
    11:00 +23°C° 0.7 mm 1 mps 589 mmHg 67%
    12:00 +22°C° 1.9 mm 1 mps 588 mmHg 73%
    13:00 +20°C° 1.9 mm 2 mps 588 mmHg 78%
    14:00 +20°C° 1.9 mm 2 mps 587 mmHg 84%
    15:00 +19°C° 1.4 mm 2 mps 586 mmHg 87%
    16:00 +18°C° 1.4 mm 2 mps 586 mmHg 90%
    17:00 +18°C° 1.4 mm 2 mps 586 mmHg 93%
    18:00 +17°C° 1.4 mm 2 mps 586 mmHg 93%
    19:00 +16°C° 1.4 mm 1 mps 586 mmHg 93%
    20:00 +15°C° 1.4 mm 1 mps 587 mmHg 94%
    21:00 +15°C° 0.3 mm 1 mps 587 mmHg 93%
    22:00 +15°C° 0.3 mm 1 mps 586 mmHg 93%
    23:00 +15°C° 0.3 mm 2 mps 586 mmHg 92%

    23 August, Friday

    Time Temperature Precipitation Wind Pressure Humidity
    00:00 +15°C° 0 mm 2 mps 586 mmHg 92%
    01:00 +15°C° 0 mm 2 mps 586 mmHg 92%
    02:00 +14°C° 0 mm 2 mps 586 mmHg 92%
    03:00 +15°C° 0 mm 2 mps 586 mmHg 92%
    04:00 +15°C° 0 mm 2 mps 586 mmHg 92%
    05:00 +15°C° 0 mm 2 mps 587 mmHg 91%
    06:00 +16°C° 0 mm 1 mps 587 mmHg 86%
    07:00 +18°C° 0 mm 1 mps 588 mmHg 81%
    08:00 +20°C° 0 mm 1 mps 589 mmHg 75%
    09:00 +21°C° 0.7 mm 1 mps 589 mmHg 73%
    10:00 +22°C° 0.7 mm 1 mps 590 mmHg 70%
    11:00 +23°C° 0.7 mm 1 mps 590 mmHg 68%
    12:00 +23°C° 2.3 mm 1 mps 589 mmHg 72%
    13:00 +21°C° 2.3 mm 2 mps 588 mmHg 75%
    14:00 +20°C° 2.3 mm 2 mps 588 mmHg 79%
    15:00 +20°C° 0.7 mm 2 mps 587 mmHg 82%
    16:00 +19°C° 0.7 mm 2 mps 587 mmHg 85%
    17:00 +19°C° 0.7 mm 2 mps 587 mmHg 88%
    18:00 +19°C° 0.4 mm 1 mps 587 mmHg 89%
    19:00 +18°C° 0.4 mm 1 mps 587 mmHg 90%
    20:00 +15°C° 0.4 mm 0 mps 587 mmHg 92%
    21:00 +16°C° 0.3 mm 1 mps 587 mmHg 91%
    22:00 +15°C° 0.3 mm 1 mps 588 mmHg 90%
    23:00 +15°C° 0.3 mm 1 mps 588 mmHg 89%

    24 August, Saturday

    Time Temperature Precipitation Wind Pressure Humidity
    00:00 +15°C° 0.2 mm 1 mps 587 mmHg 88%
    01:00 +15°C° 0.2 mm 1 mps 587 mmHg 88%
    02:00 +14°C° 0.2 mm 1 mps 587 mmHg 87%
    03:00 +14°C° 0 mm 1 mps 587 mmHg 86%
    04:00 +14°C° 0 mm 1 mps 587 mmHg 86%
    05:00 +14°C° 0 mm 1 mps 587 mmHg 85%
    06:00 +16°C° 0 mm 1 mps 588 mmHg 79%
    07:00 +19°C° 0 mm 1 mps 589 mmHg 73%
    08:00 +19°C° 0 mm 0 mps 590 mmHg 67%
    09:00 +22°C° 0.2 mm 1 mps 591 mmHg 62%
    10:00 +23°C° 0.2 mm 1 mps 591 mmHg 56%
    11:00 +24°C° 0.2 mm 1 mps 591 mmHg 50%
    12:00 +24°C° 0.6 mm 2 mps 591 mmHg 56%
    13:00 +23°C° 0.6 mm 2 mps 590 mmHg 62%
    14:00 +21°C° 0.6 mm 3 mps 589 mmHg 68%
    15:00 +20°C° 0.9 mm 2 mps 588 mmHg 74%
    16:00 +20°C° 0.9 mm 2 mps 588 mmHg 79%
    17:00 +20°C° 0.9 mm 1 mps 587 mmHg 84%
    18:00 +19°C° 0.1 mm 1 mps 587 mmHg 85%
    19:00 +18°C° 0.1 mm 1 mps 587 mmHg 86%
    20:00 +15°C° 0.1 mm 1 mps 587 mmHg 87%
    21:00 +15°C° 0 mm 1 mps 587 mmHg 85%
    22:00 +15°C° 0 mm 1 mps 587 mmHg 82%
    23:00 +15°C° 0 mm 1 mps 587 mmHg 80%
    Show more